| time (UTC) | temp C | wind direction | speed KPH | gust KPH | rain 1hr cm | rain 24hr cm | rain mn cm | humidity % | barometer mb |
| 20260901201021 | 31 | 0 | 1.6 | 9.7 | 0.00 | 0.53 | 0.53 | 82 | 1014.7 |
| 20260901200521 | 31 | 33 | 3.2 | 9.7 | 0.00 | 0.53 | 0.53 | 80 | 1014.8 |
| 20260901200040 | 30 | 0 | 0.0 | 6.4 | 0.00 | 0.53 | 0.53 | 81 | 1014.9 |
| 20260901195519 | 30 | 18 | 0.0 | 8.0 | 0.00 | 0.53 | 0.53 | 81 | 1014.9 |
| 20260901195022 | 30 | 0 | 3.2 | 8.0 | 0.00 | 0.53 | 0.53 | 80 | 1015.0 |
| 20260901194537 | 30 | 318 | 3.2 | 8.0 | 0.00 | 0.53 | 0.53 | 80 | 1015.0 |
| 20260901194023 | 30 | 0 | 0.0 | 8.0 | 0.00 | 0.53 | 0.53 | 80 | 1015.0 |
| 20260901193523 | 30 | 56 | 1.6 | 6.4 | 0.00 | 0.53 | 0.53 | 80 | 1014.9 |
| 20260901193038 | 30 | 60 | 0.0 | 6.4 | 0.00 | 0.53 | 0.53 | 82 | 1015.1 |
| 20260901192524 | 30 | 0 | 0.0 | 4.8 | 0.00 | 0.53 | 0.53 | 82 | 1015.2 |
| 20260901192028 | 31 | 0 | 0.0 | 8.0 | 0.00 | 0.53 | 0.53 | 82 | 1015.1 |
| 20260901191544 | 31 | 0 | 0.0 | 8.0 | 0.00 | 0.53 | 0.53 | 84 | 1015.1 |
| 20260901191019 | 31 | 46 | 0.0 | 8.0 | 0.00 | 0.53 | 0.53 | 80 | 1015.0 |
| 20260901190520 | 30 | 11 | 0.0 | 8.0 | 0.00 | 0.53 | 0.53 | 83 | 1015.1 |
| 20260901190044 | 30 | 29 | 1.6 | 6.4 | 0.00 | 0.53 | 0.53 | 82 | 1015.2 |
| 20260901185520 | 30 | 0 | 0.0 | 8.0 | 0.00 | 0.53 | 0.53 | 84 | 1015.2 |
| 20260901185020 | 30 | 0 | 0.0 | 8.0 | 0.00 | 0.53 | 0.53 | 87 | 1015.3 |
| 20260901184538 | 30 | 4 | 1.6 | 6.4 | 0.00 | 0.53 | 0.53 | 86 | 1015.4 |
| 20260901184019 | 29 | 0 | 0.0 | 1.6 | 0.00 | 0.53 | 0.53 | 89 | 1015.3 |
| 20260901183522 | 29 | 0 | 0.0 | 1.6 | 0.00 | 0.53 | 0.53 | 90 | 1015.3 |
| 20260901183039 | 29 | 0 | 0.0 | 1.6 | 0.00 | 0.53 | 0.53 | 93 | 1015.3 |
| 20260901182519 | 28 | 0 | 0.0 | 0.0 | 0.00 | 0.53 | 0.53 | 96 | 1015.4 |
| 20260901182024 | 28 | 0 | 0.0 | 0.0 | 0.00 | 0.53 | 0.53 | 96 | 1015.5 |
| 20260901181540 | 28 | 0 | 0.0 | 1.6 | 0.00 | 0.53 | 0.53 | 96 | 1015.5 |
| 20260901181020 | 28 | 0 | 0.0 | 1.6 | 0.00 | 0.53 | 0.53 | 98 | 1015.5 |
| 20260901180521 | 28 | 0 | 0.0 | 1.6 | 0.00 | 0.53 | 0.53 | 97 | 1015.6 |
| 20260901180037 | 28 | 0 | 0.0 | 1.6 | 0.00 | 0.53 | 0.53 | 98 | 1015.8 |
| 20260901175521 | 27 | 0 | 0.0 | 1.6 | 0.00 | 0.53 | 0.53 | 99 | 1015.9 |
| 20260901175020 | 27 | 0 | 0.0 | 0.0 | 0.00 | 0.53 | 0.53 | 98 | 1016.0 |
| 20260901174540 | 27 | 0 | 0.0 | 0.0 | 0.00 | 0.53 | 0.53 | 100 | 1016.1 |
| 20260901174024 | 27 | 0 | 0.0 | 0.0 | 0.00 | 0.53 | 0.53 | 100 | 1016.2 |
| 20260901173519 | 27 | 0 | 0.0 | 0.0 | 0.00 | 0.53 | 0.53 | 100 | 1016.2 |
| 20260901173036 | 27 | 0 | 0.0 | 3.2 | 0.00 | 0.53 | 0.53 | 100 | 1016.2 |
| 20260901172516 | 27 | 0 | 0.0 | 3.2 | 0.00 | 0.53 | 0.53 | 100 | 1016.3 |
| 20260901172025 | 27 | 0 | 0.0 | 3.2 | 0.00 | 0.53 | 0.53 | 100 | 1016.4 |
| 20260901171539 | 27 | 0 | 0.0 | 0.0 | 0.48 | 0.53 | 0.53 | 100 | 1016.3 |
| 20260901171023 | 27 | 0 | 0.0 | 1.6 | 0.48 | 0.53 | 0.53 | 100 | 1016.4 |
| 20260901170524 | 27 | 0 | 0.0 | 1.6 | 0.48 | 0.53 | 0.53 | 100 | 1016.4 |
| 20260901170041 | 27 | 0 | 0.0 | 0.0 | 0.48 | 0.53 | 0.53 | 100 | 1016.4 |
| 20260901165520 | 27 | 0 | 0.0 | 0.0 | 0.48 | 0.58 | 0.53 | 100 | 1016.4 |
| 20260901165020 | 27 | 0 | 0.0 | 0.0 | 0.48 | 0.58 | 0.53 | 100 | 1016.5 |
| 20260901164540 | 27 | 0 | 0.0 | 0.0 | 0.48 | 0.58 | 0.53 | 99 | 1016.4 |
| 20260901164018 | 27 | 0 | 0.0 | 0.0 | 0.48 | 0.58 | 0.53 | 98 | 1016.5 |
| 20260901163519 | 27 | 0 | 0.0 | 0.0 | 0.48 | 0.58 | 0.53 | 98 | 1016.6 |
| 20260901163039 | 27 | 0 | 0.0 | 4.8 | 0.51 | 0.58 | 0.53 | 96 | 1016.6 |
| 20260901162518 | 27 | 0 | 0.0 | 4.8 | 0.53 | 0.58 | 0.53 | 93 | 1016.6 |
| 20260901162020 | 29 | 239 | 0.0 | 4.8 | 0.51 | 0.56 | 0.51 | 87 | 1016.6 |
| 20260901161544 | 30 | 346 | 0.0 | 4.8 | 0.05 | 0.10 | 0.05 | 82 | 1016.7 |
| 20260901161023 | 31 | 0 | 0.0 | 1.6 | 0.05 | 0.10 | 0.05 | 82 | 1016.7 |
| 20260901160522 | 31 | 0 | 0.0 | 6.4 | 0.05 | 0.10 | 0.05 | 80 | 1016.7 |
| 20260901160051 | 31 | 0 | 0.0 | 6.4 | 0.05 | 0.10 | 0.05 | 86 | 1016.8 |
| 20260901155520 | 31 | 302 | 0.0 | 4.8 | 0.05 | 0.10 | 0.05 | 86 | 1016.8 |
| 20260901155022 | 31 | 0 | 0.0 | 4.8 | 0.05 | 0.10 | 0.05 | 89 | 1016.7 |
| 20260901154539 | 30 | 0 | 0.0 | 1.6 | 0.05 | 0.10 | 0.05 | 89 | 1016.7 |
| 20260901154019 | 30 | 0 | 0.0 | 0.0 | 0.05 | 0.10 | 0.05 | 91 | 1016.8 |
| 20260901153519 | 30 | 0 | 0.0 | 4.8 | 0.05 | 0.10 | 0.05 | 88 | 1016.8 |
| 20260901153041 | 31 | 0 | 0.0 | 4.8 | 0.03 | 0.08 | 0.03 | 83 | 1016.9 |
| 20260901152523 | 31 | 0 | 0.0 | 4.8 | 0.00 | 0.05 | 0.00 | 79 | 1016.8 |
| 20260901152020 | 31 | 0 | 0.0 | 1.6 | 0.00 | 0.05 | 0.00 | 78 | 1016.8 |
| 20260901151535 | 31 | 259 | 0.0 | 1.6 | 0.00 | 0.05 | 0.00 | 80 | 1016.7 |
| 20260901151024 | 31 | 0 | 0.0 | 3.2 | 0.00 | 0.05 | 0.00 | 83 | 1016.8 |
| 20260901150519 | 31 | 0 | 0.0 | 3.2 | 0.00 | 0.05 | 0.00 | 82 | 1016.7 |
| 20260901150039 | 30 | 0 | 0.0 | 3.2 | 0.00 | 0.05 | 0.00 | 83 | 1016.7 |
| 20260901145520 | 30 | 0 | 0.0 | 1.6 | 0.00 | 0.05 | 0.00 | 84 | 1016.7 |
| 20260901145021 | 30 | 0 | 0.0 | 1.6 | 0.00 | 0.05 | 0.00 | 84 | 1016.7 |
| 20260901144540 | 30 | 0 | 0.0 | 1.6 | 0.00 | 0.05 | 0.00 | 86 | 1016.7 |
| 20260901144019 | 30 | 0 | 0.0 | 1.6 | 0.00 | 0.05 | 0.00 | 86 | 1016.7 |
| 20260901143519 | 29 | 0 | 0.0 | 1.6 | 0.00 | 0.05 | 0.00 | 86 | 1016.7 |
| 20260901143036 | 30 | 0 | 0.0 | 3.2 | 0.00 | 0.05 | 0.00 | 87 | 1016.7 |
| 20260901142521 | 29 | 0 | 0.0 | 3.2 | 0.00 | 0.05 | 0.00 | 89 | 1016.6 |
| 20260901142023 | 28 | 20 | 0.0 | 3.2 | 0.00 | 0.05 | 0.00 | 89 | 1016.5 |
| 20260901141537 | 28 | 0 | 0.0 | 0.0 | 0.00 | 0.05 | 0.00 | 91 | 1016.5 |
| 20260901141021 | 28 | 0 | 0.0 | 0.0 | 0.00 | 0.05 | 0.00 | 90 | 1016.5 |
| 20260901140520 | 28 | 0 | 0.0 | 1.6 | 0.00 | 0.05 | 0.00 | 91 | 1016.5 |
| 20260901140040 | 28 | 0 | 0.0 | 1.6 | 0.00 | 0.05 | 0.00 | 92 | 1016.5 |
| 20260901135522 | 28 | 0 | 0.0 | 1.6 | 0.00 | 0.05 | 0.00 | 92 | 1016.5 |
| 20260901135019 | 28 | 0 | 0.0 | 3.2 | 0.00 | 0.05 | 0.00 | 94 | 1016.5 |
| 20260901134558 | 27 | 0 | 0.0 | 3.2 | 0.00 | 0.05 | 0.00 | 94 | 1016.4 |
| 20260901134017 | 27 | 0 | 0.0 | 0.0 | 0.00 | 0.05 | 0.00 | 97 | 1016.4 |
| 20260901133521 | 27 | 0 | 0.0 | 1.6 | 0.00 | 0.05 | 0.00 | 99 | 1016.4 |
| 20260901133035 | 26 | 0 | 0.0 | 1.6 | 0.00 | 0.05 | 0.00 | 100 | 1016.4 |
| 20260901132520 | 26 | 342 | 0.0 | 1.6 | 0.00 | 0.05 | 0.00 | 100 | 1016.4 |
| 20260901132020 | 26 | 0 | 0.0 | 0.0 | 0.00 | 0.05 | 0.00 | 100 | 1016.3 |
| 20260901131536 | 26 | 0 | 0.0 | 0.0 | 0.00 | 0.05 | 0.00 | 100 | 1016.3 |
| 20260901131021 | 25 | 0 | 0.0 | 0.0 | 0.00 | 0.05 | 0.00 | 100 | 1016.3 |
| 20260901130525 | 25 | 0 | 0.0 | 0.0 | 0.00 | 0.05 | 0.00 | 100 | 1016.3 |
| 20260901130039 | 25 | 0 | 0.0 | 0.0 | 0.00 | 0.05 | 0.00 | 100 | 1016.3 |
| 20260901125520 | 24 | 0 | 0.0 | 0.0 | 0.00 | 0.05 | 0.00 | 100 | 1016.2 |
| 20260901125019 | 24 | 0 | 0.0 | 0.0 | 0.00 | 0.05 | 0.00 | 100 | 1016.3 |
| 20260901124545 | 24 | 0 | 0.0 | 0.0 | 0.00 | 0.05 | 0.00 | 100 | 1016.3 |
| 20260901124020 | 24 | 0 | 0.0 | 0.0 | 0.00 | 0.05 | 0.00 | 100 | 1016.4 |
| 20260901123520 | 24 | 0 | 0.0 | 0.0 | 0.00 | 0.05 | 0.00 | 100 | 1016.3 |
| 20260901123036 | 24 | 0 | 0.0 | 0.0 | 0.00 | 0.05 | 0.00 | 100 | 1016.3 |
| 20260901122521 | 23 | 0 | 0.0 | 0.0 | 0.00 | 0.05 | 0.00 | 100 | 1016.3 |
| 20260901122020 | 23 | 0 | 0.0 | 0.0 | 0.00 | 0.05 | 0.00 | 100 | 1016.2 |
| 20260901121536 | 23 | 0 | 0.0 | 0.0 | 0.00 | 0.05 | 0.00 | 100 | 1016.2 |
| 20260901121021 | 23 | 0 | 0.0 | 0.0 | 0.00 | 0.05 | 0.00 | 100 | 1016.1 |
| 20260901120523 | 23 | 0 | 0.0 | 0.0 | 0.00 | 0.05 | 0.00 | 100 | 1016.1 |
| 20260901120055 | 23 | 0 | 0.0 | 0.0 | 0.00 | 0.05 | 0.00 | 100 | 1016.0 |
| 20260901115521 | 23 | 0 | 0.0 | 0.0 | 0.00 | 0.05 | 0.00 | 100 | 1016.0 |
| 20260901115023 | 23 | 0 | 0.0 | 0.0 | 0.00 | 0.05 | 0.00 | 100 | 1015.9 |
| 20260901114540 | 23 | 0 | 0.0 | 0.0 | 0.00 | 0.05 | 0.00 | 100 | 1015.8 |
| 20260901114020 | 23 | 0 | 0.0 | 0.0 | 0.00 | 0.05 | 0.00 | 100 | 1015.8 |
| 20260901113521 | 23 | 0 | 0.0 | 0.0 | 0.00 | 0.05 | 0.00 | 100 | 1015.8 |
| 20260901113103 | 23 | 0 | 0.0 | 0.0 | 0.00 | 0.05 | 0.00 | 100 | 1015.7 |
| 20260901112516 | 22 | 0 | 0.0 | 0.0 | 0.00 | 0.05 | 0.00 | 100 | 1015.7 |
| 20260901112021 | 23 | 0 | 0.0 | 0.0 | 0.00 | 0.05 | 0.00 | 100 | 1015.6 |
| 20260901111540 | 22 | 0 | 0.0 | 0.0 | 0.00 | 0.05 | 0.00 | 100 | 1015.5 |
| 20260901111021 | 22 | 0 | 0.0 | 0.0 | 0.00 | 0.05 | 0.00 | 100 | 1015.4 |
| 20260901110524 | 22 | 0 | 0.0 | 0.0 | 0.00 | 0.05 | 0.00 | 100 | 1015.3 |
| 20260901110058 | 22 | 0 | 0.0 | 0.0 | 0.00 | 0.05 | 0.00 | 100 | 1015.2 |
| 20260901105521 | 22 | 0 | 0.0 | 0.0 | 0.00 | 0.05 | 0.00 | 100 | 1015.2 |
| 20260901105020 | 22 | 0 | 0.0 | 0.0 | 0.00 | 0.05 | 0.00 | 100 | 1015.2 |
| 20260901104544 | 22 | 0 | 0.0 | 0.0 | 0.00 | 0.05 | 0.00 | 100 | 1015.1 |
| 20260901104023 | 22 | 0 | 0.0 | 0.0 | 0.00 | 0.05 | 0.00 | 100 | 1015.1 |
| 20260901103520 | 22 | 0 | 0.0 | 0.0 | 0.00 | 0.05 | 0.00 | 100 | 1015.2 |
| 20260901103039 | 22 | 0 | 0.0 | 0.0 | 0.00 | 0.05 | 0.00 | 100 | 1015.0 |
| 20260901102524 | 22 | 0 | 0.0 | 0.0 | 0.00 | 0.05 | 0.00 | 100 | 1015.1 |
| 20260901102022 | 22 | 0 | 0.0 | 0.0 | 0.00 | 0.05 | 0.00 | 100 | 1015.0 |
| 20260901101602 | 22 | 0 | 0.0 | 0.0 | 0.00 | 0.05 | 0.00 | 100 | 1015.0 |
| 20260901101020 | 22 | 0 | 0.0 | 0.0 | 0.00 | 0.05 | 0.00 | 100 | 1015.0 |
| 20260901100521 | 22 | 0 | 0.0 | 0.0 | 0.00 | 0.05 | 0.00 | 100 | 1015.0 |
| 20260901100054 | 22 | 0 | 0.0 | 0.0 | 0.00 | 0.05 | 0.00 | 100 | 1015.0 |
| 20260901095520 | 22 | 0 | 0.0 | 0.0 | 0.00 | 0.05 | 0.00 | 100 | 1015.0 |
| 20260901095020 | 23 | 0 | 0.0 | 0.0 | 0.00 | 0.05 | 0.00 | 100 | 1014.9 |
| 20260901094541 | 23 | 0 | 0.0 | 0.0 | 0.00 | 0.05 | 0.00 | 100 | 1014.9 |
| 20260901094019 | 23 | 0 | 0.0 | 0.0 | 0.00 | 0.05 | 0.00 | 100 | 1015.0 |
| 20260901093519 | 23 | 0 | 0.0 | 0.0 | 0.00 | 0.05 | 0.00 | 100 | 1014.9 |
| 20260901093041 | 23 | 0 | 0.0 | 0.0 | 0.00 | 0.05 | 0.00 | 100 | 1014.9 |
| 20260901092521 | 23 | 0 | 0.0 | 0.0 | 0.00 | 0.05 | 0.00 | 100 | 1014.8 |
| 20260901092023 | 23 | 0 | 0.0 | 0.0 | 0.00 | 0.05 | 0.00 | 100 | 1014.8 |
| 20260901091541 | 23 | 0 | 0.0 | 0.0 | 0.00 | 0.05 | 0.00 | 100 | 1014.8 |
| 20260901091019 | 23 | 0 | 0.0 | 0.0 | 0.00 | 0.05 | 0.00 | 100 | 1014.7 |
| 20260901090520 | 23 | 0 | 0.0 | 0.0 | 0.00 | 0.05 | 0.00 | 100 | 1014.6 |
| 20260901090040 | 23 | 0 | 0.0 | 0.0 | 0.00 | 0.05 | 0.00 | 100 | 1014.6 |
| 20260901085519 | 23 | 0 | 0.0 | 0.0 | 0.00 | 0.05 | 0.00 | 100 | 1014.7 |
| 20260901085020 | 23 | 0 | 0.0 | 0.0 | 0.00 | 0.05 | 0.00 | 100 | 1014.7 |
| 20260901084544 | 23 | 0 | 0.0 | 0.0 | 0.00 | 0.05 | 0.00 | 100 | 1014.7 |
| 20260901084023 | 23 | 0 | 0.0 | 0.0 | 0.00 | 0.05 | 0.00 | 100 | 1014.8 |
| 20260901083521 | 23 | 0 | 0.0 | 0.0 | 0.00 | 0.05 | 0.00 | 100 | 1014.8 |
| 20260901083041 | 23 | 0 | 0.0 | 0.0 | 0.00 | 0.05 | 0.00 | 100 | 1014.9 |
| 20260901082521 | 23 | 0 | 0.0 | 0.0 | 0.00 | 0.05 | 0.00 | 100 | 1014.8 |
| 20260901082020 | 23 | 0 | 0.0 | 0.0 | 0.00 | 0.05 | 0.00 | 100 | 1014.8 |
| 20260901081543 | 23 | 0 | 0.0 | 0.0 | 0.00 | 0.05 | 0.00 | 100 | 1014.8 |
| 20260901081021 | 23 | 0 | 0.0 | 0.0 | 0.00 | 0.05 | 0.00 | 100 | 1014.8 |
| 20260901080520 | 23 | 0 | 0.0 | 0.0 | 0.00 | 0.05 | 0.00 | 100 | 1014.7 |
| 20260901080044 | 23 | 0 | 0.0 | 0.0 | 0.00 | 0.05 | 0.00 | 100 | 1014.7 |
| 20260901075522 | 23 | 0 | 0.0 | 0.0 | 0.00 | 0.05 | 0.00 | 100 | 1014.8 |
| 20260901075022 | 23 | 0 | 0.0 | 0.0 | 0.00 | 0.05 | 0.00 | 100 | 1014.9 |
| 20260901074539 | 23 | 0 | 0.0 | 0.0 | 0.00 | 0.05 | 0.00 | 100 | 1014.9 |
| 20260901074018 | 23 | 0 | 0.0 | 0.0 | 0.00 | 0.05 | 0.00 | 100 | 1014.9 |
| 20260901073518 | 23 | 0 | 0.0 | 0.0 | 0.00 | 0.05 | 0.00 | 100 | 1014.9 |
| 20260901073040 | 23 | 0 | 0.0 | 0.0 | 0.00 | 0.05 | 0.00 | 100 | 1015.0 |
| 20260901072523 | 23 | 0 | 0.0 | 0.0 | 0.00 | 0.05 | 0.00 | 100 | 1015.1 |
| 20260901072020 | 23 | 0 | 0.0 | 0.0 | 0.00 | 0.05 | 0.00 | 100 | 1015.1 |
| 20260901071536 | 23 | 0 | 0.0 | 0.0 | 0.00 | 0.05 | 0.00 | 100 | 1015.1 |
| 20260901071023 | 23 | 0 | 0.0 | 0.0 | 0.00 | 0.05 | 0.00 | 100 | 1015.1 |
| 20260901070521 | 23 | 0 | 0.0 | 0.0 | 0.00 | 0.05 | 0.00 | 100 | 1015.1 |
| 20260901070044 | 23 | 0 | 0.0 | 0.0 | 0.00 | 0.05 | 0.00 | 100 | 1015.1 |
| 20260901065519 | 23 | 0 | 0.0 | 0.0 | 0.00 | 0.05 | 0.00 | 100 | 1015.1 |
| 20260901065019 | 23 | 0 | 0.0 | 0.0 | 0.00 | 0.05 | 0.00 | 100 | 1015.1 |
| 20260901064539 | 23 | 0 | 0.0 | 0.0 | 0.00 | 0.05 | 0.00 | 100 | 1015.2 |
| 20260901064018 | 23 | 0 | 0.0 | 0.0 | 0.00 | 0.05 | 0.00 | 100 | 1015.2 |
| 20260901063519 | 23 | 0 | 0.0 | 0.0 | 0.00 | 0.05 | 0.00 | 100 | 1015.2 |
| 20260901063045 | 23 | 0 | 0.0 | 0.0 | 0.00 | 0.05 | 0.00 | 100 | 1015.3 |
| 20260901062526 | 23 | 0 | 0.0 | 0.0 | 0.00 | 0.05 | 0.00 | 100 | 1015.3 |
| 20260901062031 | 23 | 0 | 0.0 | 0.0 | 0.00 | 0.05 | 0.00 | 100 | 1015.4 |
| 20260901061537 | 23 | 0 | 0.0 | 0.0 | 0.00 | 0.05 | 0.00 | 100 | 1015.5 |
| 20260901061020 | 23 | 0 | 0.0 | 0.0 | 0.00 | 0.05 | 0.00 | 100 | 1015.5 |
| 20260901060521 | 23 | 0 | 0.0 | 0.0 | 0.00 | 0.05 | 0.00 | 100 | 1015.4 |
| 20260901060035 | 23 | 0 | 0.0 | 0.0 | 0.00 | 0.05 | 0.00 | 100 | 1015.6 |
| 20260901055520 | 23 | 0 | 0.0 | 0.0 | 0.00 | 0.05 | 0.00 | 100 | 1015.7 |
| 20260901055027 | 23 | 0 | 0.0 | 0.0 | 0.00 | 0.05 | 0.00 | 100 | 1015.8 |
| 20260901054540 | 23 | 0 | 0.0 | 0.0 | 0.00 | 0.05 | 0.00 | 100 | 1015.8 |
| 20260901054024 | 23 | 0 | 0.0 | 0.0 | 0.00 | 0.05 | 0.00 | 100 | 1015.9 |
| 20260901053520 | 23 | 0 | 0.0 | 0.0 | 0.00 | 0.05 | 0.00 | 100 | 1015.9 |
| 20260901053102 | 23 | 0 | 0.0 | 0.0 | 0.00 | 0.05 | 0.00 | 100 | 1015.9 |
| 20260901052521 | 23 | 0 | 0.0 | 0.0 | 0.00 | 0.05 | 0.00 | 100 | 1015.9 |
| 20260901052021 | 23 | 0 | 0.0 | 0.0 | 0.00 | 0.05 | 0.00 | 100 | 1016.0 |
| 20260901051535 | 23 | 0 | 0.0 | 0.0 | 0.00 | 0.05 | 0.00 | 100 | 1016.0 |
| 20260901051018 | 23 | 0 | 0.0 | 0.0 | 0.00 | 0.05 | 0.00 | 100 | 1016.1 |
| 20260901050520 | 23 | 0 | 0.0 | 0.0 | 0.00 | 0.05 | 0.00 | 100 | 1016.1 |
| 20260901050038 | 23 | 0 | 0.0 | 0.0 | 0.00 | 0.05 | 0.00 | 100 | 1016.2 |
| 20260901045541 | 23 | 0 | 0.0 | 0.0 | 0.00 | 0.05 | 0.00 | 100 | 1016.2 |
| 20260901045019 | 23 | 0 | 0.0 | 0.0 | 0.00 | 0.05 | 0.00 | 100 | 1016.3 |
| 20260901044602 | 23 | 0 | 0.0 | 0.0 | 0.00 | 0.05 | 0.00 | 100 | 1016.4 |
| 20260901044018 | 23 | 0 | 0.0 | 0.0 | 0.00 | 0.05 | 0.00 | 100 | 1016.5 |
| 20260901043517 | 23 | 0 | 0.0 | 0.0 | 0.00 | 0.05 | 0.00 | 100 | 1016.5 |
| 20260901043041 | 23 | 0 | 0.0 | 0.0 | 0.00 | 0.05 | 0.00 | 100 | 1016.4 |
| 20260901042532 | 23 | 0 | 0.0 | 0.0 | 0.00 | 0.05 | 0.00 | 100 | 1016.3 |
| 20260901042029 | 23 | 0 | 0.0 | 0.0 | 0.00 | 0.05 | 0.00 | 100 | 1016.3 |
| 20260901041537 | 23 | 0 | 0.0 | 0.0 | 0.00 | 0.05 | 0.00 | 100 | 1016.3 |
| 20260901041019 | 24 | 0 | 0.0 | 0.0 | 0.00 | 0.05 | 0.00 | 100 | 1016.4 |
| 20260901040520 | 24 | 0 | 0.0 | 0.0 | 0.00 | 0.05 | 0.00 | 100 | 1016.5 |
| 20260901040037 | 24 | 0 | 0.0 | 0.0 | 0.00 | 0.05 | 0.00 | 100 | 1016.6 |
| 20260901035522 | 24 | 0 | 0.0 | 0.0 | 0.00 | 0.05 | 0.05 | 100 | 1016.5 |
| 20260901035017 | 24 | 0 | 0.0 | 0.0 | 0.00 | 0.05 | 0.05 | 100 | 1016.5 |
| 20260901034549 | 24 | 0 | 0.0 | 0.0 | 0.00 | 0.05 | 0.05 | 100 | 1016.5 |
| 20260901034024 | 24 | 0 | 0.0 | 0.0 | 0.00 | 0.05 | 0.05 | 100 | 1016.5 |
| 20260901033521 | 24 | 0 | 0.0 | 0.0 | 0.00 | 0.05 | 0.05 | 100 | 1016.5 |
| 20260901033042 | 24 | 0 | 0.0 | 0.0 | 0.00 | 0.05 | 0.05 | 100 | 1016.5 |
| 20260901032517 | 24 | 0 | 0.0 | 0.0 | 0.00 | 0.05 | 0.05 | 100 | 1016.5 |
| 20260901032018 | 24 | 0 | 0.0 | 0.0 | 0.00 | 0.05 | 0.05 | 100 | 1016.5 |
| 20260901031546 | 24 | 0 | 0.0 | 0.0 | 0.00 | 0.05 | 0.05 | 100 | 1016.6 |
| 20260901031018 | 24 | 0 | 0.0 | 0.0 | 0.00 | 0.05 | 0.05 | 100 | 1016.6 |
| 20260901030521 | 24 | 0 | 0.0 | 0.0 | 0.00 | 0.05 | 0.05 | 100 | 1016.6 |
| 20260901030037 | 24 | 0 | 0.0 | 0.0 | 0.00 | 0.05 | 0.05 | 100 | 1016.6 |
| 20260901025522 | 25 | 0 | 0.0 | 0.0 | 0.00 | 0.05 | 0.05 | 100 | 1016.6 |
| 20260901025022 | 25 | 0 | 0.0 | 0.0 | 0.00 | 0.05 | 0.05 | 100 | 1016.6 |
| 20260901024538 | 25 | 0 | 0.0 | 0.0 | 0.00 | 0.05 | 0.05 | 100 | 1016.6 |
| 20260901024020 | 25 | 0 | 0.0 | 0.0 | 0.00 | 0.05 | 0.05 | 100 | 1016.6 |
| 20260901023520 | 25 | 0 | 0.0 | 0.0 | 0.00 | 0.05 | 0.05 | 100 | 1016.6 |
| 20260901023040 | 25 | 0 | 0.0 | 0.0 | 0.00 | 0.05 | 0.05 | 100 | 1016.6 |
| 20260901022518 | 25 | 0 | 0.0 | 0.0 | 0.00 | 0.05 | 0.05 | 100 | 1016.5 |
| 20260901022021 | 25 | 0 | 0.0 | 0.0 | 0.00 | 0.05 | 0.05 | 100 | 1016.5 |
| 20260901021541 | 25 | 0 | 0.0 | 0.0 | 0.00 | 0.05 | 0.05 | 100 | 1016.5 |
| 20260901021019 | 25 | 0 | 0.0 | 0.0 | 0.00 | 0.05 | 0.05 | 100 | 1016.5 |
| 20260901020522 | 25 | 0 | 0.0 | 0.0 | 0.00 | 0.05 | 0.05 | 100 | 1016.5 |
| 20260901020059 | 25 | 0 | 0.0 | 0.0 | 0.00 | 0.05 | 0.05 | 100 | 1016.5 |
| 20260901015520 | 25 | 0 | 0.0 | 0.0 | 0.00 | 0.05 | 0.05 | 100 | 1016.4 |
| 20260901015020 | 25 | 0 | 0.0 | 0.0 | 0.00 | 0.05 | 0.05 | 100 | 1016.4 |
| 20260901014539 | 25 | 0 | 0.0 | 0.0 | 0.00 | 0.05 | 0.05 | 100 | 1016.3 |
| 20260901014021 | 25 | 0 | 0.0 | 0.0 | 0.00 | 0.05 | 0.05 | 100 | 1016.3 |
| 20260901013520 | 25 | 0 | 0.0 | 0.0 | 0.00 | 0.05 | 0.05 | 100 | 1016.2 |
| 20260901013042 | 25 | 0 | 0.0 | 0.0 | 0.00 | 0.05 | 0.05 | 100 | 1016.2 |
| 20260901012519 | 25 | 0 | 0.0 | 0.0 | 0.00 | 0.05 | 0.05 | 100 | 1016.2 |
| 20260901012020 | 25 | 0 | 0.0 | 0.0 | 0.00 | 0.05 | 0.05 | 100 | 1016.2 |
| 20260901011541 | 25 | 0 | 0.0 | 0.0 | 0.00 | 0.05 | 0.05 | 100 | 1016.1 |
| 20260901011019 | 25 | 0 | 0.0 | 0.0 | 0.00 | 0.05 | 0.05 | 100 | 1016.0 |
| 20260901010522 | 25 | 0 | 0.0 | 0.0 | 0.00 | 0.05 | 0.05 | 100 | 1015.9 |
| 20260901010042 | 25 | 0 | 0.0 | 0.0 | 0.00 | 0.05 | 0.05 | 100 | 1015.8 |
| 20260901005520 | 25 | 0 | 0.0 | 0.0 | 0.00 | 0.05 | 0.05 | 100 | 1015.8 |
| 20260901005022 | 25 | 0 | 0.0 | 0.0 | 0.00 | 0.05 | 0.05 | 99 | 1015.7 |
| 20260901004542 | 26 | 0 | 0.0 | 0.0 | 0.00 | 0.05 | 0.05 | 99 | 1015.7 |
| 20260901004021 | 26 | 0 | 0.0 | 0.0 | 0.00 | 0.05 | 0.05 | 99 | 1015.7 |
| 20260901003519 | 26 | 0 | 0.0 | 0.0 | 0.00 | 0.05 | 0.05 | 99 | 1015.6 |
| 20260901003046 | 26 | 0 | 0.0 | 0.0 | 0.00 | 0.05 | 0.05 | 98 | 1015.5 |
| 20260901002520 | 26 | 0 | 0.0 | 0.0 | 0.00 | 0.05 | 0.05 | 98 | 1015.4 |
| 20260901002020 | 26 | 0 | 0.0 | 0.0 | 0.00 | 0.05 | 0.05 | 98 | 1015.5 |
| 20260901001550 | 26 | 0 | 0.0 | 0.0 | 0.00 | 0.05 | 0.05 | 98 | 1015.5 |
| 20260901001019 | 26 | 0 | 0.0 | 0.0 | 0.00 | 0.05 | 0.05 | 98 | 1015.5 |
| 20260901000520 | 26 | 0 | 0.0 | 0.0 | 0.00 | 0.05 | 0.05 | 98 | 1015.5 |
| 20260901000045 | 26 | 0 | 0.0 | 0.0 | 0.00 | 0.05 | 0.05 | 97 | 1015.4 |
| 20260831235519 | 26 | 0 | 0.0 | 0.0 | 0.00 | 0.05 | 0.05 | 97 | 1015.4 |
| 20260831235016 | 27 | 0 | 0.0 | 0.0 | 0.00 | 0.05 | 0.05 | 97 | 1015.4 |
| 20260831234555 | 27 | 0 | 0.0 | 0.0 | 0.00 | 0.05 | 0.05 | 97 | 1015.4 |
| 20260831234020 | 27 | 0 | 0.0 | 0.0 | 0.00 | 0.05 | 0.05 | 96 | 1015.4 |
| 20260831233523 | 27 | 0 | 0.0 | 0.0 | 0.00 | 0.05 | 0.05 | 96 | 1015.4 |
| 20260831233046 | 27 | 0 | 0.0 | 0.0 | 0.00 | 0.05 | 0.05 | 96 | 1015.4 |
| 20260831232519 | 27 | 0 | 0.0 | 1.6 | 0.00 | 0.05 | 0.05 | 96 | 1015.3 |
| 20260831232019 | 27 | 0 | 0.0 | 1.6 | 0.00 | 0.05 | 0.05 | 96 | 1015.3 |
| 20260831231538 | 27 | 0 | 0.0 | 1.6 | 0.00 | 0.05 | 0.05 | 96 | 1015.5 |
| 20260831231019 | 27 | 289 | 0.0 | 1.6 | 0.00 | 0.05 | 0.05 | 96 | 1015.4 |
| 20260831230518 | 27 | 0 | 0.0 | 3.2 | 0.00 | 0.05 | 0.05 | 97 | 1015.4 |
| 20260831230041 | 26 | 18 | 0.0 | 3.2 | 0.00 | 0.05 | 0.05 | 97 | 1015.5 |
| 20260831225518 | 26 | 0 | 0.0 | 0.0 | 0.00 | 0.05 | 0.05 | 97 | 1015.5 |
| 20260831225020 | 26 | 0 | 0.0 | 0.0 | 0.00 | 0.05 | 0.05 | 96 | 1015.5 |
| 20260831224539 | 26 | 0 | 0.0 | 0.0 | 0.00 | 0.05 | 0.05 | 96 | 1015.6 |
| 20260831224021 | 26 | 0 | 0.0 | 0.0 | 0.00 | 0.05 | 0.05 | 95 | 1015.6 |
| 20260831223520 | 27 | 0 | 0.0 | 0.0 | 0.00 | 0.05 | 0.05 | 95 | 1015.7 |
| 20260831223037 | 27 | 0 | 0.0 | 0.0 | 0.00 | 0.05 | 0.05 | 95 | 1015.7 |
| 20260831222520 | 27 | 0 | 0.0 | 0.0 | 0.00 | 0.05 | 0.05 | 94 | 1015.7 |
| 20260831222019 | 27 | 0 | 0.0 | 1.6 | 0.00 | 0.05 | 0.05 | 93 | 1015.7 |
| 20260831221540 | 27 | 0 | 0.0 | 1.6 | 0.00 | 0.05 | 0.05 | 92 | 1015.7 |
| 20260831221019 | 27 | 212 | 0.0 | 1.6 | 0.00 | 0.05 | 0.05 | 91 | 1015.7 |
| 20260831220519 | 28 | 0 | 0.0 | 1.6 | 0.00 | 0.05 | 0.05 | 93 | 1015.7 |
| 20260831220045 | 28 | 0 | 0.0 | 1.6 | 0.00 | 0.05 | 0.05 | 92 | 1015.8 |
| 20260831215519 | 28 | 0 | 0.0 | 0.0 | 0.00 | 0.05 | 0.05 | 92 | 1015.9 |
| 20260831215021 | 28 | 0 | 0.0 | 1.6 | 0.00 | 0.05 | 0.05 | 92 | 1016.0 |
| 20260831214540 | 28 | 0 | 0.0 | 3.2 | 0.00 | 0.05 | 0.05 | 92 | 1015.9 |
| 20260831214019 | 28 | 302 | 0.0 | 3.2 | 0.00 | 0.05 | 0.05 | 91 | 1016.0 |
| 20260831213520 | 28 | 0 | 0.0 | 3.2 | 0.00 | 0.05 | 0.05 | 91 | 1015.8 |
| 20260831213039 | 28 | 0 | 0.0 | 1.6 | 0.00 | 0.05 | 0.05 | 91 | 1015.9 |
| 20260831212526 | 28 | 0 | 0.0 | 1.6 | 0.00 | 0.05 | 0.05 | 91 | 1016.0 |
| 20260831212020 | 28 | 0 | 0.0 | 0.0 | 0.00 | 0.05 | 0.05 | 90 | 1015.9 |
| 20260831211543 | 28 | 0 | 0.0 | 0.0 | 0.00 | 0.05 | 0.05 | 90 | 1015.8 |
| 20260831211018 | 28 | 0 | 0.0 | 0.0 | 0.00 | 0.05 | 0.05 | 90 | 1015.8 |
| 20260831210520 | 28 | 0 | 0.0 | 1.6 | 0.00 | 0.05 | 0.05 | 89 | 1015.8 |
| 20260831210047 | 28 | 0 | 0.0 | 1.6 | 0.00 | 0.05 | 0.05 | 89 | 1015.8 |
| 20260831205521 | 28 | 0 | 0.0 | 0.0 | 0.00 | 0.05 | 0.05 | 88 | 1015.6 |
| 20260831205023 | 28 | 0 | 0.0 | 1.6 | 0.00 | 0.05 | 0.05 | 89 | 1015.7 |
| 20260831204535 | 28 | 0 | 0.0 | 1.6 | 0.00 | 0.05 | 0.05 | 88 | 1015.7 |
| 20260831204024 | 28 | 8 | 0.0 | 4.8 | 0.00 | 0.05 | 0.05 | 88 | 1015.7 |
| 20260831203521 | 28 | 0 | 0.0 | 4.8 | 0.00 | 0.05 | 0.05 | 88 | 1015.7 |
| 20260831203038 | 28 | 0 | 0.0 | 0.0 | 0.00 | 0.05 | 0.05 | 89 | 1015.8 |
| 20260831202520 | 28 | 0 | 0.0 | 0.0 | 0.00 | 0.05 | 0.05 | 88 | 1015.7 |
| 20260831202018 | 28 | 0 | 0.0 | 1.6 | 0.00 | 0.05 | 0.05 | 85 | 1015.5 |
| 20260831201546 | 29 | 0 | 0.0 | 4.8 | 0.00 | 0.05 | 0.05 | 84 | 1015.6 |